Starlink 31802

operational
NORAD ID: 59636 Int'l Des: 2024-082 Owner: SPXS Country: US Constellation: starlink
LEOCIRCULAR

关于 Starlink 31802

正在加载描述...

实时位置

正在加载3D地球...

即将过境

高度历史

Altitude vs Time

uPlot chart will show altitude changes over time

两行轨道根数

1 59636U 24082F 25351.07067252 .00000240 00000-0 18222-4 0 9995
2 59636 42.9996 246.6349 0001114 268.7898 91.2826 15.27582833 92170
Epoch: Dec 17, 2025 • Age: 31 hours

当前状态

高度 494.8 km
速度 7.62 km/s
星下点 -41.07°S, 88.81°W
发射日期 May 3, 2024
运行时间 1.6 years
类型 internet

技术详情

分类 Payload
质量 730.00 kg
干质量 700.00 kg
总质量 730.00 kg
长度 0.30 m
直径 4.10 m
跨度 29.00 m
形状 Box + pan
制造商 SPXS
平台类型 Starlink V2M
阶段状态 In Orbit
所有者/国家 SPXS/US

大型星座

Loading constellations...